Regional Weather Roundup
Issued by NWS Little Rock, AR

Home | Current Version | Previous Version | Graphics & Text | Print | Product List | Glossary On
Versions: 1 2 3 4 5 6 7 8 9 10 11 12 13 14 15 16 17 18 19 20 21 22 23 24 25 26 27 28 29 30 31 32 33 34 35 36 37 38 39 40 41 42 43 44 45 46 47 48 49 50
000
ASUS44 KLZK 301905
RWRLZK

WEATHER ROUNDUP FOR ARKANSAS
NATIONAL WEATHER SERVICE LITTLE ROCK AR
200 PM CDT TUE JUN 30 2015

NOTE: "FAIR" INDICATES FEW OR NO CLOUDS BELOW 12,000 FEET WITH NO
SIGNIFICANT WEATHER AND/OR OBSTRUCTIONS TO VISIBILITY.

ARZ001-003-010-029-302000-
NORTHWEST ARKANSAS

CITY           SKY/WX    TMP DP  RH WIND       PRES   REMARKS
FAYETTEVILLE   MOSUNNY   86  73  65 SW10      30.00F HX  93
FORT SMITH     MOSUNNY   90  69  50 S6        29.96F HX  94
HARRISON       SUNNY     83  65  54 W10       30.00F HX  85
BENTONVILLE    SUNNY     86  70  58 W5        30.01F HX  90
ROGERS         SUNNY     86  69  56 NW9       30.00F HX  90
SILOAM SPGS    SUNNY     88  70  55 SW8       29.97F HX  92
HIGHFILL       SUNNY     88  72  58 W9        29.99F HX  94
$$

ARZ004-005-016-302000-
NORTH CENTRAL ARKANSAS

CITY           SKY/WX    TMP DP  RH WIND       PRES   REMARKS
BATESVILLE     SUNNY     88  66  48 SW9       29.96S HX  90
FLIPPIN          N/A     88  64  45 W9        29.94F HX  89
MTN HOME       SUNNY     85  67  54 VRB6      29.96F HX  87
$$

ARZ040-041-302000-
WEST CENTRAL ARKANSAS

CITY           SKY/WX    TMP DP  RH WIND       PRES   REMARKS
MENA           SUNNY     91  64  40 W8        30.02F HX  93
MOUNT IDA      SUNNY     90  71  53 VRB3      29.97F HX  96
$$

ARZ009-017-025-026-028-302000-
NORTHEAST ARKANSAS

CITY           SKY/WX    TMP DP  RH WIND       PRES   REMARKS
JONESBORO      SUNNY     88  65  46 W9        29.94F HX  90
NEWPORT        MOSUNNY   91  66  43 W10       29.96F HX  93
WALNUT RIDGE   SUNNY     88  66  48 W12       29.93F HX  90
BLYTHEVILLE    SUNNY     87  69  54 W8        29.93F HX  91
NW BLYTHEVILLE CLOUDY    88  66  48 W8        29.93F HX  90
$$

ARZ022-023-033-042-044-302000-
CENTRAL ARKANSAS

CITY           SKY/WX    TMP DP  RH WIND       PRES   REMARKS
LITTLE ROCK    PTSUNNY   89  62  40 NW9       29.97F HX  89
N LITTLE ROCK  PTSUNNY   86  71  61 W6        29.97F HX  91
JACKSONVILLE   MOSUNNY   87  69  53 W7        29.97F HX  91
SEARCY         SUNNY     87  68  52 VRB5      29.97F HX  90
HOT SPRINGS    SUNNY     90  69  50 NW8       29.98F HX  94
RUSSELLVILLE   SUNNY     88  70  55 SW6       29.96F HX  93
CLINTON        FAIR      88  68  51 CALM      29.97F HX  91
$$

ARZ036-302000-
EAST ARKANSAS

CITY           SKY/WX    TMP DP  RH WIND       PRES   REMARKS
WEST MEMPHIS   MOSUNNY   86  73  65 VRB5      29.94F HX  93
$$

ARZ050-053-066-070-073-302000-
SOUTHWEST ARKANSAS

CITY           SKY/WX    TMP DP  RH WIND       PRES   REMARKS
ARKADELPHIA    FAIR      93  75  55 VRB6      29.97F HX 104
CAMDEN         SUNNY     91  66  43 NE6       29.98S HX  94
TEXARKANA      SUNNY     92  70  48 W7        29.99F HX  97
EL DORADO      SUNNY     90  72  55 W10       29.99F HX  97
DE QUEEN       MOSUNNY   89  71  55 W8        29.97F HX  95
$$

ARZ056-057-069-302000-
SOUTHEAST ARKANSAS

CITY           SKY/WX    TMP DP  RH WIND       PRES   REMARKS
PINE BLUFF     MOSUNNY   89  71  55 W10       29.97F HX  95
STUTTGART      SUNNY     88  72  58 NW6       29.98F HX  94
MONTICELLO     MOSUNNY   90  75  61 W10G17    29.97F HX 100

$$





USA.gov is the U.S. government's official web portal to all federal, state and local government web resources and services.